Time,TemperatureF,DewpointF,PressureIn,WindDirection,WindDirectionDegrees,WindSpeedMPH,WindSpeedGustMPH,Humidity,HourlyPrecipIn,Conditions,Clouds,dailyrainin,SoftwareType,DateUTC
2013-07-26 00:02:00,65.0,60.0,29.94,NE,49,2.0,14.0,85,0.00,,,0.00,,2013-07-26 04:02:00,
2013-07-26 00:32:00,65.0,61.0,29.94,North,9,5.0,11.0,86,0.00,,,0.00,,2013-07-26 04:32:00,
2013-07-26 00:53:00,64.0,60.0,29.94,North,360,1.0,9.0,86,0.01,,,0.01,,2013-07-26 04:53:00,
2013-07-26 01:02:00,64.0,60.0,29.94,NNE,19,2.0,9.0,87,0.01,,,0.01,,2013-07-26 05:02:00,
2013-07-26 01:22:00,65.0,61.0,29.94,NNE,13,2.0,7.0,87,0.01,,,0.01,,2013-07-26 05:22:00,
2013-07-26 01:32:00,65.0,61.0,29.94,NNE,15,3.0,10.0,87,0.01,,,0.01,,2013-07-26 05:32:00,
2013-07-26 01:52:00,65.0,61.0,29.94,NE,40,1.0,8.0,86,0.00,,,0.01,,2013-07-26 05:52:00,
2013-07-26 02:12:00,65.0,60.0,29.93,NNE,12,2.0,8.0,85,0.00,,,0.01,,2013-07-26 06:12:00,
2013-07-26 02:33:00,64.0,59.0,29.91,North,10,6.0,12.0,85,0.00,,,0.01,,2013-07-26 06:33:00,
2013-07-26 02:43:00,64.0,59.0,29.91,NNE,13,2.0,13.0,84,0.00,,,0.01,,2013-07-26 06:43:00,
2013-07-26 02:52:00,64.0,59.0,29.91,NNE,13,2.0,13.0,84,0.00,,,0.01,,2013-07-26 06:52:00,
2013-07-26 03:02:00,64.0,59.0,29.91,NE,53,3.0,8.0,85,0.00,,,0.01,,2013-07-26 07:02:00,
2013-07-26 03:32:00,65.0,60.0,29.91,NNE,12,1.0,11.0,84,0.00,,,0.01,,2013-07-26 07:32:00,
2013-07-26 03:43:00,65.0,60.0,29.91,NNE,19,2.0,11.0,84,0.00,,,0.01,,2013-07-26 07:43:00,
2013-07-26 03:53:00,65.0,60.0,29.91,North,9,4.0,9.0,84,0.00,,,0.01,,2013-07-26 07:53:00,
2013-07-26 04:02:00,65.0,60.0,29.91,North,360,3.0,11.0,84,0.00,,,0.01,,2013-07-26 08:02:00,
2013-07-26 04:12:00,65.0,60.0,29.91,North,360,3.0,11.0,84,0.00,,,0.01,,2013-07-26 08:12:00,
2013-07-26 04:22:00,65.0,60.0,29.91,NNE,17,4.0,12.0,83,0.00,,,0.01,,2013-07-26 08:22:00,
2013-07-26 04:32:00,65.0,60.0,29.91,NE,38,4.0,9.0,83,0.00,,,0.01,,2013-07-26 08:32:00,
2013-07-26 04:52:00,65.0,61.0,29.91,North,9,1.0,12.0,86,0.00,,,0.01,,2013-07-26 08:52:00,
2013-07-26 05:02:00,65.0,59.0,29.91,North,360,1.0,8.0,82,0.00,,,0.01,,2013-07-26 09:02:00,
2013-07-26 05:12:00,65.0,59.0,29.91,NNE,13,4.0,11.0,81,0.00,,,0.01,,2013-07-26 09:12:00,
2013-07-26 05:22:00,65.0,59.0,29.91,NNE,17,4.0,12.0,81,0.00,,,0.01,,2013-07-26 09:22:00,
2013-07-26 05:43:00,65.0,59.0,29.91,North,360,3.0,10.0,80,0.00,,,0.01,,2013-07-26 09:43:00,
2013-07-26 05:52:00,65.0,59.0,29.92,North,9,2.0,10.0,80,0.00,,,0.01,,2013-07-26 09:52:00,
2013-07-26 06:02:00,66.0,59.0,29.92,North,5,2.0,7.0,79,0.00,,,0.01,,2013-07-26 10:02:00,
2013-07-26 06:12:00,66.0,59.0,29.92,North,5,2.0,7.0,79,0.00,,,0.01,,2013-07-26 10:12:00,
2013-07-26 06:22:00,66.0,59.0,29.92,North,11,5.0,11.0,79,0.00,,,0.01,,2013-07-26 10:22:00,
2013-07-26 06:52:00,66.0,59.0,29.91,NNE,16,1.0,7.0,77,0.00,,,0.01,,2013-07-26 10:52:00,
2013-07-26 07:02:00,66.0,58.0,29.91,North,350,2.0,10.0,76,0.00,,,0.01,,2013-07-26 11:02:00,
2013-07-26 07:32:00,67.0,58.0,29.93,North,351,1.0,9.0,74,0.00,,,0.01,,2013-07-26 11:32:00,
2013-07-26 07:43:00,68.0,59.0,29.93,North,5,3.0,9.0,74,0.00,,,0.01,,2013-07-26 11:43:00,
2013-07-26 07:52:00,68.0,59.0,29.93,North,5,3.0,9.0,74,0.00,,,0.01,,2013-07-26 11:52:00,
2013-07-26 08:02:00,68.0,60.0,29.93,North,360,1.0,7.0,75,0.00,,,0.01,,2013-07-26 12:02:00,
2013-07-26 08:12:00,68.0,59.0,29.93,NNE,17,6.0,11.0,74,0.00,,,0.01,,2013-07-26 12:12:00,
2013-07-26 08:22:00,68.0,59.0,29.93,North,360,3.0,8.0,72,0.00,,,0.01,,2013-07-26 12:22:00,
2013-07-26 08:43:00,69.0,60.0,29.94,NNE,23,2.0,8.0,72,0.00,,,0.01,,2013-07-26 12:43:00,
2013-07-26 08:53:00,69.0,60.0,29.94,NNE,23,2.0,8.0,72,0.00,,,0.01,,2013-07-26 12:53:00,
2013-07-26 09:02:00,69.0,60.0,29.94,NE,56,2.0,4.0,72,0.00,,,0.01,,2013-07-26 13:02:00,
2013-07-26 09:12:00,70.0,61.0,29.94,North,10,0.0,5.0,72,0.00,,,0.01,,2013-07-26 13:12:00,
2013-07-26 09:23:00,70.0,60.0,29.94,NNW,346,1.0,7.0,71,0.00,,,0.01,,2013-07-26 13:23:00,
2013-07-26 09:32:00,70.0,59.0,29.94,North,9,5.0,11.0,69,0.00,,,0.01,,2013-07-26 13:32:00,
2013-07-26 09:43:00,71.0,60.0,29.95,North,5,1.0,8.0,68,0.00,,,0.01,,2013-07-26 13:43:00,
2013-07-26 10:02:00,71.0,59.0,29.94,NE,34,4.0,9.0,66,0.00,,,0.01,,2013-07-26 14:02:00,
2013-07-26 10:12:00,72.0,60.0,29.94,NNE,19,4.0,10.0,66,0.00,,,0.01,,2013-07-26 14:12:00,
2013-07-26 10:22:00,72.0,60.0,29.94,NNE,16,1.0,8.0,67,0.00,,,0.01,,2013-07-26 14:22:00,
2013-07-26 10:33:00,72.0,60.0,29.95,NNE,19,2.0,8.0,67,0.00,,,0.01,,2013-07-26 14:33:00,
2013-07-26 10:43:00,72.0,60.0,29.95,NW,321,6.0,15.0,66,0.00,,,0.01,,2013-07-26 14:43:00,
2013-07-26 11:03:00,73.0,61.0,29.96,North,351,6.0,10.0,65,0.00,,,0.01,,2013-07-26 15:03:00,
2013-07-26 11:22:00,73.0,61.0,29.96,NW,316,4.0,7.0,65,0.00,,,0.01,,2013-07-26 15:22:00,
2013-07-26 11:33:00,75.0,61.0,29.96,NNW,332,3.0,9.0,62,0.00,,,0.01,,2013-07-26 15:33:00,
2013-07-26 11:43:00,75.0,61.0,29.96,NNW,328,4.0,8.0,61,0.00,,,0.01,,2013-07-26 15:43:00,
2013-07-26 11:53:00,75.0,61.0,29.96,NNW,328,4.0,8.0,61,0.00,,,0.01,,2013-07-26 15:53:00,
2013-07-26 12:14:00,76.0,61.0,29.96,WNW,297,3.0,10.0,59,0.00,,,0.01,,2013-07-26 16:14:00,
2013-07-26 12:22:00,76.0,61.0,29.96,NW,312,2.0,10.0,60,0.00,,,0.01,,2013-07-26 16:22:00,
2013-07-26 12:32:00,77.0,62.0,29.95,NW,306,2.0,8.0,60,0.00,,,0.01,,2013-07-26 16:32:00,
2013-07-26 12:43:00,77.0,61.0,29.95,NW,317,1.0,9.0,57,0.00,,,0.01,,2013-07-26 16:43:00,
2013-07-26 13:03:00,79.0,62.0,29.95,North,360,0.0,7.0,57,0.00,,,0.01,,2013-07-26 17:03:00,
2013-07-26 13:33:00,79.0,62.0,29.94,North,9,1.0,9.0,56,0.00,,,0.01,,2013-07-26 17:33:00,
2013-07-26 13:53:00,79.0,61.0,29.94,WNW,294,5.0,9.0,54,0.00,,,0.01,,2013-07-26 17:53:00,
2013-07-26 14:03:00,80.0,61.0,29.94,NW,323,0.0,6.0,52,0.00,,,0.01,,2013-07-26 18:03:00,
2013-07-26 14:33:00,81.0,61.0,29.94,North,10,2.0,10.0,51,0.00,,,0.01,,2013-07-26 18:33:00,
2013-07-26 14:44:00,81.0,60.0,29.94,NW,313,2.0,7.0,49,0.00,,,0.01,,2013-07-26 18:44:00,
2013-07-26 14:52:00,81.0,60.0,29.94,SSE,157,4.0,8.0,49,0.00,,,0.01,,2013-07-26 18:52:00,
2013-07-26 15:03:00,81.0,59.0,29.94,WNW,300,2.0,9.0,48,0.00,,,0.01,,2013-07-26 19:03:00,
2013-07-26 15:12:00,81.0,59.0,29.94,WNW,300,2.0,9.0,48,0.00,,,0.01,,2013-07-26 19:12:00,
2013-07-26 15:22:00,82.0,58.0,29.94,NNE,18,1.0,7.0,44,0.00,,,0.01,,2013-07-26 19:22:00,
2013-07-26 15:32:00,82.0,62.0,29.94,ESE,114,3.0,8.0,51,0.00,,,0.01,,2013-07-26 19:32:00,
2013-07-26 15:43:00,79.0,62.0,29.94,East,88,3.0,9.0,57,0.00,,,0.01,,2013-07-26 19:43:00,
2013-07-26 15:52:00,79.0,62.0,29.94,East,88,3.0,9.0,57,0.00,,,0.01,,2013-07-26 19:52:00,
2013-07-26 16:02:00,78.0,63.0,29.94,SE,130,1.0,8.0,60,0.00,,,0.01,,2013-07-26 20:02:00,
2013-07-26 16:12:00,77.0,62.0,29.94,South,191,4.0,8.0,60,0.00,,,0.01,,2013-07-26 20:12:00,
2013-07-26 16:32:00,77.0,63.0,29.94,SE,144,2.0,7.0,62,0.00,,,0.01,,2013-07-26 20:32:00,
2013-07-26 16:43:00,76.0,62.0,29.94,South,173,5.0,10.0,63,0.00,,,0.01,,2013-07-26 20:43:00,
2013-07-26 16:53:00,76.0,62.0,29.94,South,173,5.0,10.0,63,0.00,,,0.01,,2013-07-26 20:53:00,
2013-07-26 17:32:00,78.0,62.0,29.94,SSE,151,1.0,8.0,59,0.00,,,0.01,,2013-07-26 21:32:00,
2013-07-26 17:43:00,79.0,63.0,29.94,SE,140,2.0,9.0,58,0.00,,,0.01,,2013-07-26 21:43:00,
2013-07-26 18:02:00,78.0,62.0,29.93,SSE,147,4.0,9.0,59,0.00,,,0.01,,2013-07-26 22:02:00,
2013-07-26 18:43:00,77.0,65.0,29.94,SSW,207,6.0,11.0,66,0.00,,,0.01,,2013-07-26 22:43:00,
2013-07-26 19:02:00,76.0,66.0,29.94,SSE,165,4.0,12.0,71,0.00,,,0.01,,2013-07-26 23:02:00,
2013-07-26 19:32:00,75.0,67.0,29.94,SSW,201,2.0,10.0,75,0.00,,,0.01,,2013-07-26 23:32:00,
2013-07-26 19:43:00,74.0,66.0,29.94,South,169,2.0,8.0,76,0.00,,,0.01,,2013-07-26 23:43:00,
2013-07-26 19:53:00,74.0,66.0,29.94,South,169,2.0,8.0,76,0.00,,,0.01,,2013-07-26 23:53:00,
2013-07-26 20:02:00,74.0,67.0,29.95,SE,140,5.0,11.0,79,0.00,,,0.01,,2013-07-27 00:02:00,
2013-07-26 20:32:00,73.0,67.0,29.94,SSW,203,3.0,7.0,82,0.00,,,0.01,,2013-07-27 00:32:00,
2013-07-26 20:43:00,73.0,67.0,29.94,SSW,203,3.0,7.0,82,0.00,,,0.01,,2013-07-27 00:43:00,
2013-07-26 20:53:00,73.0,67.0,29.94,SSE,164,2.0,8.0,82,0.00,,,0.01,,2013-07-27 00:53:00,
2013-07-26 21:02:00,72.0,67.0,29.94,SSW,198,0.0,6.0,83,0.00,,,0.01,,2013-07-27 01:02:00,
2013-07-26 21:12:00,72.0,66.0,29.94,SSW,194,2.0,7.0,82,0.00,,,0.01,,2013-07-27 01:12:00,
2013-07-26 21:22:00,72.0,66.0,29.95,South,183,0.0,5.0,82,0.00,,,0.01,,2013-07-27 01:22:00,
2013-07-26 21:32:00,72.0,66.0,29.95,South,183,0.0,5.0,82,0.00,,,0.01,,2013-07-27 01:32:00,
2013-07-26 21:43:00,72.0,66.0,29.96,South,184,1.0,5.0,82,0.00,,,0.01,,2013-07-27 01:43:00,
2013-07-26 21:53:00,72.0,66.0,29.96,SW,217,2.0,7.0,82,0.00,,,0.01,,2013-07-27 01:53:00,
2013-07-26 22:02:00,72.0,66.0,29.97,SSE,165,0.0,3.0,82,0.00,,,0.01,,2013-07-27 02:02:00,
2013-07-26 22:12:00,72.0,66.0,29.97,South,188,1.0,6.0,82,0.00,,,0.01,,2013-07-27 02:12:00,
2013-07-26 22:22:00,71.0,65.0,29.97,SSW,213,1.0,7.0,81,0.00,,,0.01,,2013-07-27 02:22:00,
2013-07-26 22:32:00,71.0,65.0,29.97,SSW,213,0.0,3.0,80,0.00,,,0.01,,2013-07-27 02:32:00,
2013-07-26 22:43:00,71.0,65.0,29.97,SSW,211,1.0,4.0,80,0.00,,,0.01,,2013-07-27 02:43:00,
2013-07-26 22:53:00,71.0,65.0,29.97,SSW,211,1.0,4.0,80,0.00,,,0.01,,2013-07-27 02:53:00,
2013-07-26 23:03:00,71.0,65.0,29.97,South,180,2.0,4.0,80,0.00,,,0.01,,2013-07-27 03:03:00,
2013-07-26 23:22:00,70.0,64.0,29.97,South,191,0.0,4.0,81,0.00,,,0.01,,2013-07-27 03:22:00,
2013-07-26 23:33:00,70.0,64.0,29.97,SSW,207,2.0,6.0,81,0.00,,,0.01,,2013-07-27 03:33:00,
2013-07-26 23:44:00,70.0,64.0,29.97,SW,226,1.0,4.0,81,0.00,,,0.01,,2013-07-27 03:44:00,
2013-07-26 23:52:00,70.0,64.0,29.97,SW,226,1.0,4.0,81,0.00,,,0.01,,2013-07-27 03:52:00,